Powrót do katalogu

CZ-6A DEB

AktywnyPO
NORAD 61080·DEBRIS·🇨🇳 China

Wystrzelony Aug 6, 2024 z Taiyuan Satellite Launch Center

Loading…

Następne Przeloty (najbliższe 24 godziny)

TLE

ŚwieżeSource: Space-Track

Epoka: Sep 14, 2026, 12:53 UTC

1 61080U 24140MW  26257.53712113  .00002906  00000-0  85177-3 0  9999
2 61080  89.2384 284.5380 0017742 316.0263  43.9528 14.43626648107769

Śledź CZ-6A DEB w czasie rzeczywistym z AllMySat

Download on the App Store